Regional Weather Roundup
Issued by NWS

Home | Current Version | Previous Version | Graphics & Text | Print | Product List | Glossary On
Versions: 1 2 3 4 5 6 7 8 9 10 11 12 13 14 15 16 17 18 19 20 21 22 23 24 25 26 27 28 29 30 31 32 33 34 35 36 37 38 39 40 41 42 43 44 45 46 47 48 49 50
000
ASUS45 KCYS 290210
RWRWY

WYOMING REGIONAL WEATHER ROUNDUP
NATIONAL WEATHER SERVICE CHEYENNE WY
800 PM MDT FRI AUG 28 2015

NOTE:  "FAIR" INDICATES FEW OR NO CLOUDS BELOW 12,000 FEET
WITH NO SIGNIFICANT WEATHER AND/OR OBSTRUCTIONS TO VISIBILITY.

WYZ001-290300-
YELLOWSTONE NATIONAL PARK

CITY           SKY/WX    TMP DP  RH WIND       PRES   REMARKS
LK YELLOWSTONE   N/A     60  39  45 CALM      30.36S
W YELLOWSTONE  NOT AVBL

$$
WYZ002>013-054>058-071-098>099-290300-
NORTHERN WYOMING

CITY           SKY/WX    TMP DP  RH WIND       PRES   REMARKS
JACKSON        FAIR      72  43  35 S7        30.24R
CODY           FAIR      77  39  25 SE9       30.12S
GREYBULL       FAIR      81  43  26 CALM      30.04R
WORLAND        FAIR      74  42  31 E9        30.06S
SHERIDAN       FAIR      68  50  52 S5        30.07R HAZE
BUFFALO        FAIR      72  44  36 W8        30.16R HAZE
GILLETTE       FAIR      64  49  57 S6        30.10S
HULETT         FAIR      72  50  46 E5        30.12R
NEWCASTLE      FAIR      72  41  33 E6        30.11R

$$
WYZ014>020-022>026-101>103-290300-
CENTRAL WYOMING

CITY           SKY/WX    TMP DP  RH WIND       PRES   REMARKS
BIG PINEY      FAIR      74  31  20 CALM      30.29S
PINEDALE       FAIR      66  37  34 W5        30.31R
DUBOIS         FAIR      66  34  30 W8        30.29S
LANDER         FAIR      74  42  31 W7        30.15R
RIVERTON       FAIR      76  35  22 NE6       30.17R
CASPER         FAIR      73  35  25 S7        30.18R
DOUGLAS        FAIR      74  38  27 S5        30.17R

$$
WYZ021-027>030-104>119-290300-
SOUTHERN WYOMING

CITY           SKY/WX    TMP DP  RH WIND       PRES   REMARKS
EVANSTON       FAIR      73  34  23 NW5       30.30R
KEMMERER       FAIR      72  32  23 W6        30.32R
FORT BRIDGER   PTCLDY    77  30  18 CALM      30.32R
ROCK SPRINGS   FAIR      73  29  19 E8        30.27S
DIXON          FAIR      72  32  22 NE8       30.30S
RAWLINS        FAIR      67  37  33 E6        30.30R
SARATOGA       FAIR      63  46  55 SE3       30.33S
LARAMIE        FAIR      68  38  33 CALM      30.35R
CHEYENNE       FAIR      69  41  36 E7        30.27R
TORRINGTON     FAIR      77  45  32 SE6       30.12R
PINE BLUFFS    FAIR      70  41  35 CALM      30.22R

$$



USA.gov is the U.S. government's official web portal to all federal, state and local government web resources and services.